Probability
77 81 77 74 68 68 65 65 68 65 58 55 55 55 45 35 29 32 32 32 32 32 35 35 39 45 39 35 39 42 48 48 39 32 39 39 35 29 16 29 26 16 13
81 77 77 71 68 68 65 65 68 68 55 52 52 48 42 42 35 29 29 32 29 29 32 35 35 32 35 29 32 35 32 42 39 26 29 32 29 32 29 29 23 13 10
71 71 68 61 61 61 65 68 68 65 61 55 45 45 42 39 35 35 32 32 29 29 32 32 32 35 32 32 26 29 35 26 39 29 26 26 29 23 26 23 19 26 10
71 68 65 58 61 61 61 61 65 61 61 52 45 42 42 39 35 35 39 35 29 29 32 29 29 29 26 32 23 23 26 29 29 26 26 26 19 23 23 13 19 16 10
68 65 65 65 61 61 65 65 71 65 45 48 45 42 39 39 35 35 39 35 35 26 26 29 26 26 23 23 19 19 19 26 23 26 23 23 23 26 13 16 13 13 10
68 65 65 61 61 61 61 71 65 61 58 55 42 42 39 32 26 23 29 29 35 35 35 29 26 26 16 10 10 10 16 23 26 23 16 19 19 23 16 10 10 6 13
61 61 61 61 61 65 58 58 58 52 55 52 52 48 42 35 19 6 10 26 29 29 29 32 19 16 16 16 16 10 10 10 13 23 13 10 13 16 13 13 13 6 6
61 61 65 61 61 65 58 58 58 55 52 52 52 42 39 32 16 10 3 10 23 23 26 29 26 23 16 19 23 16 19 19 10 10 13 16 13 19 13 13 13 16 19
61 61 61 61 68 65 65 58 55 58 48 42 42 39 35 29 16 3 0 19 19 23 23 26 23 23 16 10 13 26 23 16 10 3 3 3 3 10 6 13 13 10 6
61 61 61 65 68 65 61 58 52 61 45 42 29 32 32 29 23 0 0 13 19 19 23 29 13 10 10 6 10 13 16 13 10 3 3 3 3 3 3 6 10 6 6
65 68 65 65 68 68 68 55 52 42 35 35 26 32 32 29 23 0 0 10 13 19 16 16 16 6 3 3 6 6 6 10 10 10 6 6 6 3 3 3 13 6 6
65 65 61 61 61 48 65 55 52 42 39 35 26 26 26 26 16 3 0 0 6 16 16 10 10 3 3 0 0 6 3 3 10 10 3 0 6 10 10 6 3 13 13
65 61 61 61 65 61 61 55 45 42 32 29 26 26 26 23 16 10 0 0 0 6 10 6 6 3 3 0 0 0 0 6 6 3 0 0 3 6 6 6 10 10 13
61 61 61 61 61 58 55 42 35 26 23 23 16 19 23 16 23 13 3 0 0 0 3 3 3 0 3 3 0 0 3 6 6 0 0 3 3 13 10 10 13 6 10
61 58 58 52 48 52 45 39 32 35 29 26 26 26 19 19 10 10 10 6 3 3 3 3 6 3 10 6 6 3 3 6 3 3 6 6 6 6 6 10 6 6 3
55 55 42 42 48 42 32 29 13 13 10 6 10 10 10 6 6 3 6 6 3 3 3 6 6 10 10 10 10 10 6 3 3 3 3 3 6 6 6 10 10 3 3
55 52 45 35 42 32 32 35 29 13 3 0 3 3 3 3 3 0 0 0 0 0 3 6 10 6 6 10 10 6 6 3 3 3 3 6 6 6 6 6 3 3 3
48 42 39 35 35 35 39 29 32 29 13 13 3 0 0 0 0 0 0 0 0 0 3 6 6 6 10 6 6 6 6 6 3 3 3 6 6 6 6 3 0 0 0
32 35 39 35 26 26 23 29 26 19 16 16 13 0 0 0 0 0 0 3 6 6 6 6 10 6 6 6 6 6 6 6 6 6 6 6 6 6 6 0 0 0 0
32 16 26 23 29 19 10 16 16 10 13 13 16 16 3 0 3 0 0 6 6 6 6 6 10 10 6 6 6 6 6 6 6 6 3 6 6 6 3 3 0 0 0
23 16 10 13 16 13 10 10 16 10 13 16 16 13 3 10 10 6 6 6 6 6 6 6 6 10 10 10 6 6 6 6 6 6 6 6 6 6 3 0 0 0 0
13 13 16 16 19 23 10 10 6 6 10 13 16 13 3 3 6 6 3 6 6 10 6 10 3 10 10 6 3 3 3 3 3 3 6 3 6 3 0 0 0 0 0
6 13 10 16 16 13 13 10 3 3 6 10 13 6 6 13 10 6 3 6 6 6 6 3 6 10 10 10 3 3 3 3 3 3 3 3 3 3 0 0 0 0 0
6 6 6 10 10 10 10 10 6 6 10 13 13 16 10 16 13 10 10 3 6 6 6 10 10 6 6 10 10 3 3 3 0 0 3 3 3 3 3 3 0 0 0
6 6 6 13 6 6 6 10 10 6 6 10 10 13 16 13 10 6 6 6 10 10 10 10 10 6 6 6 6 6 0 0 0 0 3 3 3 3 3 0 0 0 0
10 6 10 6 6 3 3 3 6 6 6 6 10 10 10 10 6 6 6 6 6 6 6 6 6 6 10 10 3 3 0 0 0 0 0 0 0 0 0 0 0 0 0
Height
5893 5893 5893 5892 5891 5890 5889 5888 5888 5887 5886 5885 5884 5883 5881 5880 5879 5878 5877 5876 5874 5873 5872 5870 5869 5867 5865 5864 5862 5861 5859 5857 5856 5855 5853 5852 5850 5849 5847 5846 5844 5843 5842
5889 5888 5888 5887 5887 5886 5885 5885 5884 5883 5882 5881 5880 5879 5877 5876 5874 5873 5872 5871 5870 5868 5867 5865 5863 5862 5860 5858 5856 5855 5853 5852 5851 5849 5847 5846 5845 5843 5842 5840 5839 5837 5836
5885 5884 5884 5883 5882 5882 5881 5880 5880 5879 5878 5877 5875 5874 5873 5871 5870 5868 5867 5866 5864 5863 5861 5859 5858 5856 5854 5852 5851 5849 5847 5846 5844 5843 5841 5840 5838 5837 5836 5834 5832 5831 5830
5881 5880 5880 5879 5878 5878 5877 5876 5875 5874 5873 5872 5871 5869 5868 5866 5865 5863 5862 5860 5858 5857 5855 5853 5851 5850 5848 5846 5845 5843 5841 5839 5838 5836 5835 5833 5832 5830 5829 5828 5827 5825 5824
5877 5876 5875 5875 5874 5873 5872 5871 5870 5869 5868 5866 5865 5864 5862 5861 5859 5858 5856 5854 5852 5850 5849 5847 5845 5843 5842 5840 5838 5836 5834 5833 5831 5830 5828 5827 5825 5823 5822 5820 5819 5818 5817
5872 5871 5871 5870 5869 5868 5867 5866 5864 5863 5862 5861 5860 5858 5857 5855 5854 5852 5850 5848 5847 5845 5843 5841 5839 5837 5835 5833 5831 5829 5827 5826 5824 5823 5821 5820 5818 5816 5814 5813 5811 5810 5810
5866 5866 5865 5865 5864 5863 5862 5861 5859 5858 5857 5856 5855 5853 5851 5850 5848 5846 5844 5843 5841 5839 5837 5834 5832 5830 5828 5826 5824 5822 5820 5818 5817 5816 5814 5812 5811 5809 5807 5806 5804 5803 5802
5861 5861 5860 5859 5858 5857 5856 5856 5854 5853 5851 5850 5849 5847 5846 5844 5842 5840 5838 5836 5834 5832 5830 5828 5825 5823 5821 5819 5817 5815 5813 5811 5810 5808 5807 5805 5803 5801 5800 5799 5797 5796 5795
5855 5855 5854 5854 5853 5852 5851 5850 5849 5847 5846 5844 5843 5841 5839 5837 5835 5833 5831 5829 5828 5825 5823 5821 5818 5816 5814 5812 5810 5808 5806 5804 5802 5801 5799 5797 5796 5794 5793 5791 5790 5789 5788
5849 5849 5848 5848 5847 5846 5845 5844 5843 5842 5840 5838 5836 5834 5832 5830 5828 5827 5825 5823 5821 5819 5817 5814 5812 5810 5807 5805 5802 5801 5799 5797 5795 5793 5792 5790 5788 5787 5785 5784 5782 5781 5779
5842 5842 5842 5841 5841 5840 5839 5838 5837 5836 5834 5832 5830 5828 5825 5823 5822 5820 5818 5816 5814 5812 5810 5808 5805 5803 5801 5798 5796 5794 5792 5790 5788 5786 5784 5783 5781 5780 5779 5777 5775 5773 5772
5835 5835 5835 5834 5834 5833 5833 5832 5830 5829 5827 5825 5823 5821 5819 5817 5815 5813 5811 5809 5807 5805 5803 5801 5799 5796 5794 5792 5789 5787 5785 5783 5781 5779 5777 5775 5774 5773 5771 5769 5768 5766 5764
5828 5828 5828 5827 5827 5827 5826 5825 5823 5822 5820 5818 5816 5814 5811 5810 5808 5806 5804 5802 5800 5798 5796 5794 5792 5790 5787 5785 5782 5780 5778 5776 5774 5772 5770 5768 5767 5765 5764 5762 5761 5759 5757
5821 5821 5821 5820 5820 5819 5819 5818 5817 5815 5813 5811 5808 5806 5804 5802 5801 5798 5796 5794 5792 5790 5789 5787 5785 5783 5781 5778 5776 5773 5771 5769 5766 5765 5763 5761 5760 5758 5756 5755 5753 5752 5750
5814 5814 5813 5813 5812 5812 5812 5811 5810 5808 5806 5804 5802 5800 5798 5795 5793 5791 5789 5787 5785 5783 5781 5780 5778 5776 5774 5771 5769 5766 5763 5761 5759 5757 5755 5754 5752 5750 5748 5747 5745 5744 5743
5806 5806 5806 5805 5805 5805 5804 5803 5802 5800 5798 5796 5794 5792 5790 5788 5786 5784 5782 5780 5778 5776 5774 5773 5771 5769 5767 5764 5761 5758 5756 5754 5752 5750 5748 5746 5744 5742 5741 5739 5737 5736 5734
5797 5798 5797 5797 5797 5797 5796 5795 5794 5792 5791 5789 5787 5785 5783 5781 5779 5777 5775 5773 5771 5769 5767 5765 5764 5762 5759 5757 5754 5751 5749 5747 5744 5742 5740 5738 5736 5734 5733 5731 5729 5728 5726
5789 5789 5789 5788 5788 5788 5787 5786 5785 5784 5783 5781 5780 5778 5776 5774 5772 5770 5768 5766 5764 5762 5760 5758 5756 5755 5752 5750 5747 5744 5742 5739 5737 5735 5732 5730 5728 5726 5724 5723 5721 5719 5718
5780 5780 5780 5780 5780 5779 5778 5777 5776 5775 5774 5772 5771 5770 5768 5766 5765 5763 5762 5760 5758 5755 5753 5751 5749 5747 5745 5742 5740 5737 5734 5732 5730 5727 5725 5722 5720 5718 5716 5714 5713 5711 5709
5770 5770 5771 5771 5771 5770 5770 5769 5768 5766 5765 5764 5763 5762 5761 5759 5757 5756 5755 5753 5751 5749 5746 5744 5742 5740 5738 5735 5733 5730 5727 5725 5722 5720 5717 5714 5712 5710 5707 5706 5704 5703 5701
5761 5762 5762 5762 5762 5762 5761 5760 5759 5758 5757 5756 5754 5753 5752 5751 5750 5749 5747 5745 5743 5742 5739 5737 5735 5733 5730 5728 5725 5722 5720 5717 5714 5712 5709 5706 5704 5701 5699 5697 5695 5694 5692
5751 5752 5753 5753 5753 5753 5752 5751 5750 5750 5749 5748 5746 5745 5744 5744 5742 5741 5739 5737 5736 5734 5732 5729 5727 5725 5722 5720 5717 5715 5712 5709 5706 5704 5701 5698 5695 5693 5691 5689 5687 5685 5683
5741 5742 5743 5744 5744 5744 5743 5742 5742 5741 5740 5739 5737 5736 5736 5736 5735 5733 5731 5729 5728 5726 5724 5722 5719 5717 5714 5712 5709 5707 5704 5701 5698 5695 5693 5690 5687 5685 5683 5681 5678 5676 5674
5731 5732 5733 5734 5734 5734 5734 5734 5733 5733 5732 5731 5730 5729 5728 5728 5727 5725 5724 5722 5720 5718 5716 5714 5711 5709 5706 5704 5701 5698 5696 5693 5690 5687 5684 5682 5679 5677 5674 5672 5670 5668 5666
5721 5722 5723 5724 5724 5725 5725 5724 5724 5724 5723 5723 5722 5721 5720 5719 5718 5717 5715 5714 5712 5710 5708 5705 5703 5701 5698 5695 5693 5690 5687 5684 5681 5678 5676 5673 5671 5669 5666 5664 5662 5660 5658
5711 5712 5713 5714 5714 5715 5715 5715 5715 5715 5714 5714 5714 5713 5712 5711 5710 5709 5707 5705 5704 5702 5699 5697 5695 5693 5690 5687 5685 5682 5679 5676 5673 5670 5667 5665 5662 5660 5658 5656 5654 5652 5651
Wind_Speed
17 17 17 18 17 17 18 19 19 19 19 19 18 19 19 19 19 18 18 18 18 18 18 19 19 19 20 20 21 22 22 22 21 21 21 21 21 22 22 21 22 21 20
18 18 18 18 18 19 19 19 20 20 20 19 19 20 21 21 21 20 20 20 20 20 21 21 21 21 21 21 22 23 23 23 22 22 22 22 22 23 23 23 22 22 21
19 19 19 19 19 19 19 20 21 21 20 21 21 21 22 21 21 21 21 21 22 22 22 22 22 22 22 22 23 24 24 24 23 23 23 24 24 24 25 24 24 24 22
18 19 19 19 19 20 20 20 21 21 21 22 23 23 22 21 21 21 22 23 23 23 23 23 23 23 24 24 24 25 25 25 24 24 24 24 25 26 26 25 25 25 25
19 20 20 20 21 21 21 21 21 22 22 22 24 24 23 23 23 23 23 23 24 24 24 24 23 24 25 25 25 25 25 25 25 25 25 25 26 26 26 26 26 25 25
21 21 22 22 21 21 21 22 21 21 22 23 23 23 23 23 24 24 24 25 25 25 25 25 25 25 25 26 26 26 26 26 26 27 27 27 27 27 27 26 26 25 25
23 23 23 23 22 22 22 21 21 22 22 23 23 24 23 23 24 25 25 25 25 25 26 26 26 26 26 26 27 27 28 28 27 27 27 27 27 27 27 26 26 26 26
23 23 24 23 22 22 22 22 22 22 23 23 23 24 24 25 25 26 25 26 26 26 26 26 27 27 26 27 27 27 27 27 27 27 28 27 26 25 25 26 26 26 26
24 24 24 23 23 22 22 22 23 23 23 24 25 25 26 26 26 26 26 26 26 26 26 27 27 27 27 27 27 27 26 26 27 28 28 27 26 25 25 26 26 26 26
25 25 24 24 23 23 23 23 24 24 25 25 25 26 27 26 26 25 26 27 27 27 27 27 27 27 27 27 26 26 26 26 26 26 27 27 26 26 25 26 26 26 25
25 25 24 24 24 24 24 24 24 25 25 26 26 26 26 25 26 27 28 28 28 27 27 26 26 27 26 26 26 26 26 26 26 26 27 26 26 26 26 25 25 25 26
26 25 26 25 25 25 25 26 26 26 26 27 26 27 27 26 26 27 27 28 27 27 27 27 27 26 26 26 26 26 26 26 26 26 26 26 26 26 26 26 26 25 25
26 25 26 26 27 27 27 27 27 27 28 28 27 28 28 27 27 27 27 28 28 28 27 27 26 25 26 26 27 26 26 26 26 26 25 25 25 25 26 26 26 26 25
27 27 27 27 27 28 27 28 28 28 28 28 27 28 28 27 27 27 27 28 28 28 28 27 26 26 26 27 27 27 27 26 26 26 25 25 25 26 26 26 25 25 25
28 27 28 28 28 28 28 28 28 29 29 29 29 30 29 28 27 27 27 28 28 28 27 27 27 26 27 27 27 28 27 26 26 25 26 26 26 27 26 26 26 26 26
30 29 29 29 29 29 29 29 29 30 30 30 30 30 29 28 27 27 27 28 28 28 28 28 27 27 28 28 27 27 26 26 26 26 26 27 27 27 27 27 27 27 26
30 30 30 31 30 30 30 30 30 30 30 30 30 30 29 28 27 26 27 28 28 28 28 27 26 26 27 27 27 27 27 27 27 27 27 27 27 27 27 27 27 27 26
31 31 31 30 30 30 31 30 30 30 30 30 30 30 29 28 27 26 27 27 28 27 27 26 26 26 27 27 27 27 27 27 27 28 28 27 27 28 28 28 27 27 27
32 31 31 30 30 31 31 31 31 31 31 31 31 29 29 28 28 27 26 27 27 26 26 26 26 26 27 28 28 28 28 27 28 28 28 28 28 29 28 27 27 27 28
32 32 32 32 31 31 31 31 30 30 31 31 29 28 28 28 27 27 27 27 27 26 26 26 26 27 28 28 28 28 28 28 29 29 29 29 29 29 28 28 27 28 27
33 33 32 31 31 30 30 30 30 30 30 30 29 28 27 27 26 27 27 27 27 27 27 26 27 27 28 28 28 28 29 29 29 29 29 29 29 28 27 27 27 27 27
33 32 32 31 31 30 30 31 31 31 31 31 31 31 30 28 27 27 28 27 27 27 27 27 28 28 28 28 28 28 29 29 29 29 29 29 28 27 27 27 27 27 27
34 33 33 32 31 31 30 31 31 31 31 30 29 29 27 27 28 28 28 28 27 27 28 28 28 28 29 29 29 29 29 29 30 30 29 28 28 28 27 27 27 27 27
34 33 33 33 32 32 32 31 29 30 30 29 28 28 28 27 28 28 29 28 28 28 28 28 29 29 29 29 29 29 30 30 30 30 29 29 29 29 28 28 27 26 25
33 33 33 33 33 32 32 31 30 29 29 29 29 29 28 28 28 29 29 28 28 28 28 29 29 29 29 29 29 29 29 30 30 29 29 29 29 28 28 27 26 25 24
32 32 33 33 33 32 31 31 30 29 29 29 29 29 29 29 29 28 28 29 29 29 29 29 29 30 30 29 29 30 30 30 30 30 29 29 28 28 27 26 25 24 24
Wind_Direction
283 287 291 290 293 294 293 294 294 296 299 301 301 303 303 304 303 303 304 306 304 301 300 299 299 298 296 297 298 299 300 301 301 300 298 295 293 293 292 289 290 292 286
282 286 287 290 292 294 294 293 294 295 297 299 299 301 302 302 300 300 301 303 301 299 299 298 297 296 295 295 295 297 298 298 299 299 297 296 295 294 294 295 295 293 288
287 290 292 289 291 293 293 291 293 294 293 294 297 298 299 299 299 299 299 300 300 298 299 299 297 297 297 296 296 297 298 298 298 298 296 295 295 294 294 295 293 292 289
286 290 292 293 293 294 294 292 293 294 292 292 294 296 297 296 298 300 300 300 301 300 300 301 300 299 298 297 296 296 296 297 297 296 296 295 295 295 293 292 292 292 290
283 286 289 290 292 293 293 294 293 293 293 293 294 294 294 295 297 299 300 302 304 304 302 303 301 299 298 296 295 295 295 294 295 296 296 296 297 296 295 292 290 290 290
283 285 287 289 290 291 291 292 293 292 293 293 294 294 294 294 296 298 299 301 303 304 304 304 303 301 299 298 297 295 294 294 294 295 295 295 296 296 294 292 292 290 289
282 285 287 287 287 288 290 292 295 294 294 293 294 295 294 294 295 298 300 301 302 303 303 303 302 301 301 300 297 295 294 293 293 293 293 294 293 294 293 291 290 290 289
281 284 286 286 287 290 290 290 294 294 294 294 294 295 294 294 295 298 301 302 302 302 303 302 301 301 300 299 297 295 293 292 292 292 292 291 292 294 293 291 291 289 289
279 281 283 283 285 287 288 289 293 295 294 294 294 294 294 294 294 296 299 300 301 302 302 300 301 302 300 300 299 297 296 293 291 290 291 291 291 293 293 292 292 291 291
277 277 278 279 281 284 286 288 291 294 296 294 294 294 294 293 293 294 297 298 299 301 301 302 302 303 302 300 298 297 297 296 294 293 293 293 293 294 295 295 294 293 293
274 274 275 277 278 281 283 286 289 291 293 296 295 295 294 292 292 293 294 296 298 300 301 300 302 304 303 302 300 298 298 297 296 294 294 292 292 293 295 297 296 294 294
273 273 274 275 278 280 282 285 287 289 291 294 295 295 294 293 293 293 294 296 297 299 299 301 302 303 301 302 302 300 298 298 298 296 295 293 292 292 293 295 296 295 295
272 274 276 277 279 281 284 286 287 288 290 292 294 297 297 295 294 294 295 295 295 298 300 300 302 304 303 302 303 303 300 298 297 296 295 294 294 293 293 293 294 294 295
272 273 276 279 280 282 284 286 289 290 290 293 294 296 296 294 294 295 296 297 297 298 299 300 301 303 304 303 302 303 302 299 298 296 295 294 293 293 293 293 293 293 294
272 274 276 278 280 282 284 287 289 290 288 289 290 294 293 292 293 294 296 297 297 297 297 297 299 301 303 304 304 304 303 301 297 296 295 294 294 294 293 292 292 292 293
271 272 274 276 278 281 283 285 287 289 289 289 290 292 292 292 292 295 296 296 296 297 297 297 298 300 303 304 304 303 302 301 299 297 296 295 295 295 293 291 291 291 292
270 272 273 275 276 279 281 283 285 286 287 288 290 291 289 289 292 295 296 297 297 298 298 297 297 299 302 303 302 302 302 301 299 298 297 296 296 294 293 293 292 291 292
269 270 271 273 277 279 280 281 282 284 284 285 288 289 287 288 291 293 296 297 298 298 298 296 297 299 302 303 301 301 301 302 300 300 299 297 295 294 293 293 292 291 291
267 268 271 274 276 278 279 280 282 283 283 283 285 287 287 288 290 291 293 295 298 298 298 297 296 298 301 302 303 303 302 301 301 301 300 300 297 294 292 292 292 291 290
267 268 271 274 277 277 279 280 282 282 281 282 283 285 287 288 288 289 291 294 296 298 298 297 297 298 301 302 302 302 302 302 302 301 301 300 298 296 293 291 291 291 291
267 269 271 272 274 277 278 279 279 278 279 280 281 283 286 288 289 289 291 294 296 298 298 298 298 298 299 301 302 303 303 303 303 302 300 300 299 297 295 293 292 291 291
268 270 271 274 274 275 277 278 278 278 279 280 282 284 285 287 289 291 292 294 295 296 297 297 298 299 300 300 302 303 304 304 304 302 301 301 301 299 297 295 293 291 291
268 269 269 272 273 274 276 278 278 278 278 280 282 283 284 286 288 289 292 294 294 295 297 298 299 300 301 301 302 303 305 304 303 302 301 300 299 299 298 295 294 294 293
266 267 268 269 270 272 274 275 276 277 277 279 281 282 284 286 287 288 290 292 294 296 297 298 300 301 301 301 301 302 304 304 302 301 301 300 299 298 297 296 295 295 294
265 266 266 267 269 272 272 272 273 275 277 280 281 283 285 286 287 288 290 292 293 295 296 298 299 299 300 301 301 301 303 304 303 301 301 300 299 298 295 295 295 294 293
263 264 265 267 270 272 271 271 272 275 277 279 280 283 285 285 286 288 290 291 292 293 295 297 297 299 300 301 301 302 302 302 302 301 300 300 299 297 295 293 294 291 290